Elsenborn, Belgium

5:00 AM CET on December 15, 2017 (GMT +0100)
Elsenborn

Weather History for EBLB - February, 2014

Change the Weather History Date:

Saturday, February 22, 2014

  Actual Average Record
Temperature  
Mean Temperature 34 °F -  
Max Temperature 37 °F 40 °F 44 °F (1997)
Min Temperature 32 °F 31 °F 14 °F (2011)
Degree Days  
Heating Degree Days 30    
Moisture  
Dew Point 33 °F    
Average Humidity 95    
Maximum Humidity 100    
Minimum Humidity 86    
Precipitation  
Precipitation 0.12 in - - ()
Sea Level Pressure  
Sea Level Pressure 29.93 in    
Wind  
Wind Speed 8 mph ()    
Max Wind Speed 13 mph    
Max Gust Speed 24 mph    
Visibility 6.9 miles    
Events Rain , Snow    
Averages and records for this station are not official NWS values.
T = Trace of Precipitation, MM = Missing Value Source: Averaged Metar Reports

Daily Weather History Graph

Daily Weather History Graph

Search for Another Location

Airport or City:

Trip Planner

Search our weather history database for the weather conditions in past years. The results will help you decide how hot, cold, wet, or windy it might be!

Date:

Astronomy

Feb. 22, 2014 Rise Set
Actual Time 7:33 AM CET 6:04 PM CET
Civil Twilight 7:00 AM CET 6:37 PM CET
Nautical Twilight 6:22 AM CET 7:15 PM CET
Astronomical Twilight 5:45 AM CET 7:53 PM CET
Moon 1:25 AM CET (2/22) 10:47 AM CET (2/22)
Length of Visible Light 11h 37m
Length of Day
10h 30m
Waning Gibbous, 53% of the Moon is Illuminated
Feb 22
Waning Gibbous
Feb 22
Last Quarter
Mar 1
New
Mar 8
First Quarter
Mar 16
Full

Hourly Weather History & Observations

Time (CET) Temp. Windchill Dew Point Humidity Pressure Visibility Wind Dir Wind Speed Gust Speed Precip Events Conditions
12:00 AM 33 °F - 32 °F 95% 29.92 in 12 mi SSW 6.7 mph - -   Scattered Clouds
12:25 AM 33.8 °F 27.7 °F 32.0 °F 93% 29.83 in 6.2 mi SW 6.9 mph - N/A   Scattered Clouds
1:00 AM 33 °F - 32 °F 92% 29.92 in 11 mi SW 6.7 mph - -   Clear
1:25 AM 32.0 °F 24.8 °F 32.0 °F 100% 29.83 in 6.2 mi SSW 8.1 mph - N/A   Unknown
2:00 AM 33 °F - 32 °F 93% 29.92 in 9 mi SSW 6.7 mph - -   Scattered Clouds
2:03 AM 32.0 °F 25.6 °F 32.0 °F 100% 29.83 in 6.2 mi SSW 6.9 mph - N/A   Scattered Clouds
2:25 AM 33.8 °F 26.4 °F 32.0 °F 93% 29.83 in 6.2 mi SSW 9.2 mph - N/A   Mostly Cloudy
2:56 AM 33.8 °F 26.4 °F 32.0 °F 93% 29.83 in 6.2 mi SSW 9.2 mph - N/A   Mostly Cloudy
3:00 AM 33 °F - 32 °F 95% 29.91 in 9 mi SSW 8.9 mph - -   Partly Cloudy
3:25 AM 33.8 °F 27.0 °F 32.0 °F 93% 29.83 in 6.2 mi SSW 8.1 mph - N/A   Mostly Cloudy
4:00 AM 33 °F - 32 °F 94% 29.91 in 9 mi SSW 6.7 mph - -   Scattered Clouds
4:07 AM 33.8 °F 27.0 °F 32.0 °F 93% 29.83 in 6.2 mi South 8.1 mph - N/A   Overcast
4:17 AM 33.8 °F 27.7 °F 32.0 °F 93% 29.83 in 6.2 mi SSW 6.9 mph - N/A   Mostly Cloudy
4:25 AM 33.8 °F 26.4 °F 32.0 °F 93% 29.80 in 6.2 mi SSW 9.2 mph - N/A   Overcast
5:00 AM 33 °F - 32 °F 94% 29.90 in 11 mi SSW 8.9 mph - -   Scattered Clouds
5:22 AM 33.8 °F 26.4 °F 32.0 °F 93% 29.80 in 6.2 mi SSW 9.2 mph - N/A   Mostly Cloudy
5:25 AM 33.8 °F 26.4 °F 32.0 °F 93% 29.80 in 6.2 mi SSW 9.2 mph - N/A   Mostly Cloudy
6:00 AM 33 °F - 32 °F 95% 29.89 in 7 mi SSW 8.9 mph - -   Partly Cloudy
6:25 AM 33.8 °F 25.3 °F 32.0 °F 93% 29.83 in 6.2 mi SSW 11.5 mph 24.2 mph N/A   Mostly Cloudy
6:47 AM 33.8 °F 25.8 °F 32.0 °F 93% 29.83 in 6.2 mi SSW 10.4 mph - N/A   Mostly Cloudy
7:00 AM 34 °F - 32 °F 91% 29.90 in 12 mi SSW 8.9 mph - -   Scattered Clouds
7:12 AM 33.8 °F 25.3 °F 32.0 °F 93% 29.83 in 6.2 mi SSW 11.5 mph - N/A   Mostly Cloudy
7:25 AM 33.8 °F 24.8 °F 32.0 °F 93% 29.80 in 6.2 mi SSW 12.7 mph - N/A   Mostly Cloudy
8:00 AM 34 °F - 33 °F 92% 29.90 in 15 mi SSW 11.2 mph - -   Partly Cloudy
8:25 AM 33.8 °F 25.3 °F 33.8 °F 100% 29.83 in 6.2 mi SW 11.5 mph - N/A   Mostly Cloudy
9:00 AM 34 °F - 33 °F 95% 29.92 in 7 mi SW 8.9 mph - -   Unknown Precipitation
9:06 AM 33.8 °F 24.8 °F 33.8 °F 100% 29.83 in 3.7 mi SW 12.7 mph - N/A   Overcast
9:19 AM 33.8 °F 25.8 °F 33.8 °F 100% 29.86 in 1.4 mi SW 10.4 mph - N/A   Overcast
9:25 AM 33.8 °F 25.8 °F 32.0 °F 93% 29.86 in 1.7 mi SW 10.4 mph - N/A   Overcast
9:39 AM 33.8 °F 27.0 °F 32.0 °F 93% 29.86 in 0.9 mi SW 8.1 mph - N/A   Overcast
10:00 AM 33 °F - 33 °F 97% 29.95 in 1 mi WSW 6.7 mph - - Snow Light Snow
10:16 AM 32.0 °F 25.6 °F 32.0 °F 100% 29.86 in - SW 6.9 mph - N/A   Overcast
10:19 AM 32.0 °F 25.6 °F 32.0 °F 100% 29.89 in - SW 6.9 mph - N/A   Overcast
10:25 AM 32.0 °F 25.6 °F 32.0 °F 100% 29.89 in 3.1 mi SW 6.9 mph - N/A   Overcast
10:41 AM 33.8 °F 27.7 °F 33.8 °F 100% 29.89 in 3.7 mi SW 6.9 mph - N/A   Overcast
10:46 AM 33.8 °F 27.7 °F 33.8 °F 100% 29.89 in 2.8 mi SW 6.9 mph - N/A   Overcast
11:00 AM 33 °F - 33 °F 100% 29.96 in 3 mi SW 6.7 mph - - Snow Light Snow
11:25 AM 33.8 °F 26.4 °F 33.8 °F 100% 29.89 in 6.2 mi SW 9.2 mph - N/A   Overcast
12:00 PM 34 °F - 34 °F 100% 29.97 in 4 mi SW 6.7 mph - -   Unknown Precipitation
12:25 PM 35.6 °F 29.2 °F 33.8 °F 93% 29.89 in - SW 8.1 mph - N/A   Overcast
1:00 PM 34 °F - 34 °F 100% 29.99 in 3 mi WSW 8.9 mph - - Rain Light Rain
1:25 PM 35.6 °F 29.2 °F 35.6 °F 100% 29.92 in 3.7 mi SW 8.1 mph - N/A   Overcast
2:00 PM 36 °F - 35 °F 96% 29.98 in 6 mi SW 6.7 mph - -   Clear
2:25 PM 35.6 °F 29.2 °F 35.6 °F 100% 29.92 in 6.2 mi SW 8.1 mph - N/A   Overcast
3:00 PM 36 °F - 35 °F 97% 29.99 in 19 mi SW 6.7 mph - -   Scattered Clouds
3:03 PM 37.4 °F 32.1 °F 35.6 °F 93% 29.92 in 6.2 mi SW 6.9 mph - N/A   Mostly Cloudy
3:25 PM 37.4 °F 32.1 °F 35.6 °F 93% 29.92 in 6.2 mi SW 6.9 mph - N/A   Overcast
4:00 PM 37 °F - 34 °F 86% 30.00 in 31 mi SW 6.7 mph - -   Clear
4:25 PM 35.6 °F 29.2 °F 33.8 °F 93% 29.95 in 6.2 mi SSW 8.1 mph - N/A   Overcast
4:40 PM 35.6 °F 29.9 °F 33.8 °F 93% 29.95 in 6.2 mi SW 6.9 mph - N/A   Overcast
5:00 PM 36 °F - 34 °F 90% 30.03 in 25 mi SW 6.7 mph - -   Mostly Cloudy
5:25 PM 35.6 °F 30.7 °F 33.8 °F 93% 29.95 in 6.2 mi SW 5.8 mph - N/A   Overcast
6:00 PM 36 °F - 34 °F 88% 30.05 in 25 mi SW 4.5 mph - -   Partly Cloudy
6:10 PM 35.6 °F 30.7 °F 33.8 °F 93% 29.98 in 6.2 mi WSW 5.8 mph - N/A   Overcast
6:25 PM 35.6 °F 31.7 °F 33.8 °F 93% 29.98 in 6.2 mi SW 4.6 mph - N/A   Mostly Cloudy
7:00 PM 35 °F - 33 °F 92% 30.08 in 22 mi West 6.7 mph - -   Clear
7:14 PM 35.6 °F 30.7 °F 33.8 °F 93% 30.01 in 6.2 mi WSW 5.8 mph - N/A   Overcast
7:25 PM 35.6 °F 29.9 °F 33.8 °F 93% 30.01 in 6.2 mi SW 6.9 mph - N/A   Mostly Cloudy
8:00 PM 34 °F - 33 °F 95% 30.10 in 19 mi SSW 6.7 mph - -   Partly Cloudy
8:25 PM 33.8 °F 26.4 °F 32.0 °F 93% 30.04 in 6.2 mi SSW 9.2 mph - N/A   Overcast
9:00 PM 34 °F - 33 °F 93% 30.12 in 16 mi SSW 6.7 mph - -   Scattered Clouds
9:25 PM 33.8 °F 25.8 °F 32.0 °F 93% 30.04 in 6.2 mi SSW 10.4 mph - N/A   Mostly Cloudy
10:00 PM 33 °F - 32 °F 94% 30.14 in 12 mi SSW 8.9 mph - -   Partly Cloudy
10:16 PM 33.8 °F 25.8 °F 32.0 °F 93% 30.06 in 6.2 mi SSW 10.4 mph - N/A   Partly Cloudy
10:25 PM 33.8 °F 25.3 °F 32.0 °F 93% 30.06 in 6.2 mi SSW 11.5 mph - N/A   Partly Cloudy
11:00 PM 32 °F - 31 °F 96% 30.15 in 12 mi SSW 6.7 mph - -  
11:25 PM 32.0 °F 24.2 °F 32.0 °F 100% 30.06 in 6.2 mi SSW 9.2 mph - N/A   Unknown